Weather History for Brisbane, QU

Change the Weather History Date:

Monday, October 21, 2013

  Actual Average Record
Temperature  
Mean Temperature 71 °F -  
Max Temperature 79 °F 80 °F 82 °F (2012)
Min Temperature 63 °F 64 °F 55 °F (1997)
Cooling Degree Days 6    
Growing Degree Days 21 (Base 50)    
Moisture  
Dew Point 62 °F    
Average Humidity 71    
Maximum Humidity 94    
Minimum Humidity 41    
Precipitation  
Precipitation 0.00 in 0.14 in - ()
Sea Level Pressure  
Sea Level Pressure 30.09 in    
Wind  
Wind Speed 8 mph ()    
Max Wind Speed 16 mph    
Max Gust Speed -    
Visibility 7.9 miles    
Events      
Averages and records for this station are not official NWS values.
T = Trace of Precipitation, MM = Missing Value Source: Averaged Metar Reports

Daily Weather History Graph

Daily Weather History Graph

Search for Another Location

Airport:

Trip Planner

Search our weather history database for the weather conditions in past years. The results will help you decide how hot, cold, wet, or windy it might be!

Date:

Astronomy

Oct. 21, 2013 Rise Set
Actual Time 5:06 AM AEST 5:58 PM AEST
Civil Twilight 4:42 AM AEST 6:22 PM AEST
Nautical Twilight 4:13 AM AEST 6:50 PM AEST
Astronomical Twilight 3:45 AM AEST 7:19 PM AEST
Moon 8:05 PM AEST (10/21) 6:23 AM AEST (10/21)
Length of Visible Light 13h 40m
Length of Day
12h 52m
Waning Gibbous, 95% of the Moon is Illuminated
Oct 21
Waning Gibbous
Oct 27
Last Quarter
Nov 3
New
Nov 10
First Quarter
Nov 18
Full

Hourly Weather History & Observations

Time (AEST) Temp. Dew Point Humidity Pressure Visibility Wind Dir Wind Speed Gust Speed Precip Events Conditions
12:00 AM 67 °F 63 °F 83% 30.14 in 19 mi NE 5.8 mph - -   Partly Cloudy
12:00 AM 68.0 °F 62.6 °F 83% 30.12 in 6.2 mi NE 5.8 mph - N/A   Scattered Clouds
12:30 AM 66.2 °F 62.6 °F 88% 30.12 in 6.2 mi NNE 5.8 mph - N/A   Partly Cloudy
1:00 AM 67 °F 63 °F 82% 30.12 in - NE 4.6 mph - -  
1:00 AM 68.0 °F 62.6 °F 83% 30.12 in 6.2 mi NE 4.6 mph - N/A   Partly Cloudy
1:30 AM 66.2 °F 62.6 °F 88% 30.09 in 6.2 mi NNE 4.6 mph - N/A   Partly Cloudy
2:00 AM 66.2 °F 62.6 °F 88% 30.09 in 6.2 mi NNE 5.8 mph - N/A   Scattered Clouds
2:30 AM 66.2 °F 62.6 °F 88% 30.09 in 6.2 mi NNE 8.1 mph - N/A   Partly Cloudy
3:00 AM 67 °F 62 °F 79% 30.09 in - NNE 8.1 mph - -  
3:00 AM 66.2 °F 62.6 °F 88% 30.09 in 6.2 mi NNE 8.1 mph - N/A   Scattered Clouds
3:30 AM 66.2 °F 62.6 °F 88% 30.09 in 6.2 mi NNE 5.8 mph - N/A   Partly Cloudy
4:00 AM 64 °F 62 °F 89% 30.09 in - SW 3.5 mph - -  
4:00 AM 64.4 °F 60.8 °F 88% 30.09 in 6.2 mi SW 3.5 mph - N/A   Scattered Clouds
4:30 AM 64.4 °F 62.6 °F 94% 30.09 in 6.2 mi SW 5.8 mph - N/A   Partly Cloudy
5:00 AM 64.4 °F 62.6 °F 94% 30.09 in 6.2 mi SSW 4.6 mph - N/A   Scattered Clouds
5:30 AM 66.2 °F 64.4 °F 94% 30.09 in 6.2 mi SSW 5.8 mph - N/A   Partly Cloudy
6:00 AM 66 °F 64 °F 92% 30.14 in 19 mi SSW 6.9 mph - -   Partly Cloudy
6:00 AM 66.2 °F 64.4 °F 94% 30.12 in 6.2 mi SSW 6.9 mph - N/A   Scattered Clouds
6:30 AM 68.0 °F 66.2 °F 94% 30.12 in 6.2 mi South 5.8 mph - N/A   Partly Cloudy
7:00 AM 71 °F 65 °F 76% 30.14 in - SSW 4.6 mph - -  
7:00 AM 71.6 °F 64.4 °F 78% 30.12 in 6.2 mi SSW 4.6 mph - N/A   Partly Cloudy
7:30 AM 73.4 °F 64.4 °F 73% 30.12 in 6.2 mi WNW 1.2 mph - N/A   Partly Cloudy
8:00 AM 73.4 °F 60.8 °F 65% 30.12 in 6.2 mi North 6.9 mph - N/A   Scattered Clouds
8:30 AM 75.2 °F 59.0 °F 57% 30.12 in 6.2 mi NNE 6.9 mph - N/A   Scattered Clouds
9:00 AM 75 °F 60 °F 51% 30.15 in 19 mi North 8.1 mph - -   Partly Cloudy
9:00 AM 75.2 °F 60.8 °F 61% 30.12 in 6.2 mi North 8.1 mph - N/A   Mostly Cloudy
9:30 AM 75.2 °F 62.6 °F 65% 30.12 in 6.2 mi North 10.4 mph - N/A   Mostly Cloudy
10:00 AM 76 °F 62 °F 53% 30.14 in - North 10.4 mph - -  
10:00 AM 75.2 °F 62.6 °F 65% 30.12 in 6.2 mi North 10.4 mph - N/A   Scattered Clouds
10:30 AM 77.0 °F 59.0 °F 54% 30.12 in 6.2 mi North 9.2 mph - N/A   Partly Cloudy
11:00 AM 77.0 °F 59.0 °F 54% 30.09 in - NNE 12.7 mph - N/A   Unknown
11:30 AM 78.8 °F 60.8 °F 54% 30.09 in 6.2 mi NNE 13.8 mph - N/A   Partly Cloudy
12:00 PM 79 °F 60 °F 41% 30.11 in 19 mi NNE 13.8 mph - -   Partly Cloudy
12:00 PM 78.8 °F 59.0 °F 51% 30.09 in 6.2 mi NNE 13.8 mph - N/A   Partly Cloudy
12:30 PM 77.0 °F 59.0 °F 54% 30.09 in 6.2 mi NNE 13.8 mph - N/A   Partly Cloudy
1:00 PM 78 °F 60 °F 44% 30.08 in - NNE 15.0 mph - -  
1:00 PM 77.0 °F 60.8 °F 57% 30.06 in 6.2 mi NNE 15.0 mph - N/A   Partly Cloudy
1:30 PM 77.0 °F 57.2 °F 50% 30.06 in 6.2 mi NNE 15.0 mph - N/A   Partly Cloudy
2:00 PM 78.8 °F 59.0 °F 51% 30.04 in 6.2 mi NNE 16.1 mph - N/A   Partly Cloudy
2:30 PM 78.8 °F 57.2 °F 47% 30.04 in 6.2 mi NNE 16.1 mph - N/A   Partly Cloudy
3:00 PM 77 °F 58 °F 41% 30.04 in 19 mi NNE 15.0 mph - -   Partly Cloudy
3:00 PM 77.0 °F 57.2 °F 50% 30.04 in 6.2 mi NNE 15.0 mph - N/A   Partly Cloudy
3:30 PM 77.0 °F 60.8 °F 57% 30.04 in 6.2 mi NNE 15.0 mph - N/A   Partly Cloudy
4:00 PM 75 °F 63 °F 57% 30.04 in - NNE 15.0 mph - -  
4:00 PM 75.2 °F 62.6 °F 65% 30.04 in 6.2 mi NNE 15.0 mph - N/A   Partly Cloudy
4:30 PM 75.2 °F 62.6 °F 65% 30.04 in 6.2 mi North 15.0 mph - N/A   Partly Cloudy
5:00 PM 73.4 °F 62.6 °F 69% 30.04 in - North 15.0 mph - N/A   Clear
5:30 PM 73.4 °F 62.6 °F 69% 30.04 in 6.2 mi North 15.0 mph - N/A   Partly Cloudy
6:00 PM 72 °F 62 °F 63% 30.06 in 19 mi North 15.0 mph - -   Partly Cloudy
6:00 PM 71.6 °F 62.6 °F 73% 30.04 in 6.2 mi North 15.0 mph - N/A   Partly Cloudy
6:30 PM 71.6 °F 62.6 °F 73% 30.06 in 6.2 mi North 16.1 mph - N/A   Partly Cloudy
7:00 PM 71 °F 62 °F 64% 30.07 in - North 16.1 mph - -  
7:00 PM 71.6 °F 60.8 °F 69% 30.06 in 6.2 mi North 16.1 mph - N/A   Partly Cloudy
7:30 PM 69.8 °F 62.6 °F 78% 30.06 in 6.2 mi NNE 12.7 mph - N/A   Partly Cloudy
8:00 PM 69.8 °F 62.6 °F 78% 30.06 in 6.2 mi North 12.7 mph - N/A   Partly Cloudy
8:30 PM 69.8 °F 62.6 °F 78% 30.09 in 6.2 mi North 12.7 mph - N/A   Partly Cloudy
9:00 PM 70 °F 62 °F 69% 30.09 in 19 mi North 12.7 mph - -   Partly Cloudy
9:00 PM 69.8 °F 62.6 °F 78% 30.09 in 6.2 mi North 12.7 mph - N/A   Partly Cloudy
9:30 PM 69.8 °F 62.6 °F 78% 30.09 in 6.2 mi North 13.8 mph - N/A   Partly Cloudy
10:00 PM 70 °F 62 °F 70% 30.09 in - North 12.7 mph - -  
10:00 PM 69.8 °F 62.6 °F 78% 30.09 in 6.2 mi North 12.7 mph - N/A   Partly Cloudy
10:30 PM 69.8 °F 62.6 °F 78% 30.09 in 6.2 mi North 12.7 mph - N/A   Partly Cloudy
11:00 PM 69.8 °F 62.6 °F 78% 30.06 in 6.2 mi North 12.7 mph - N/A   Scattered Clouds
11:30 PM 69.8 °F 62.6 °F 78% 30.06 in 6.2 mi North 8.1 mph - N/A   Scattered Clouds